Espaço - Ciências - Fenômenos Naturais
Meteógrafos Informações Meteorológicas em tempo real

Aeroporto de Congonhas

Histórico do Tempo
Temperatura atual: 18 graus 64 F    Umidade relativa: 72 %
Velocidade do vento: 05 nós 9 Km/h    Direção: 140 graus SE
Ajuste do altímetro ..: 1018 HPA
Visibilidade: Ótima    Tempo presente: Céu Limpo

Observação

Data Hora BRTTempo°CUmidadePressãoVentoVisib.
24/02 - 03:55   Parcialmente Nublado 18° 77% 1018 Sul-sudeste/7 km/h OK
24/02 - 02:55   Céu Limpo 17° 82% 1019 Sul-sudeste/9 km/h OK
24/02 - 01:55   Céu Limpo 18° 77% 1019 Sul-sudeste/16 km/h OK
24/02 - 00:55   Poucas nuvens esparsas 18° 77% 1020 Sudeste/12 km/h 9999
23/02 - 23:55   Parcialmente Nublado 19° 77% 1020 Sul-sudeste/19 km/h OK
23/02 - 22:55   Parcialmente Nublado 19° 77% 1020 Sul-sudeste/18 km/h OK
23/02 - 21:55   Céu Encoberto 19° 77% 1020 Sul-sudeste/18 km/h OK
23/02 - 20:55   Parcialmente Nublado 19° 77% 1020 Sul-sudeste/23 km/h OK
23/02 - 19:55   Parcialmente Nublado 20° 77% 1019 Sul-sudeste/19 km/h OK
23/02 - 18:55   Parcialmente Nublado 20° 77% 1018 Sul-sudeste/27 km/h OK
23/02 - 17:55   Muitas Nuvens 22° 73% 1018 Sul-sudeste/25 km/h OK
23/02 - 16:55   Poucas nuvens esparsas 23° 64% 1018 Sul/23 km/h 9999
23/02 - 15:55   Não Disponível 24° 65% 1017 Sul-sudeste/25 km/h OK
23/02 - 14:55   Parcialmente Nublado 25° 61% 1017 Sul-sudeste/21 km/h 9999
23/02 - 13:55   Muitas Nuvens 25° 61% 1018 Sul-sudeste/18 km/h 9999
23/02 - 12:55   Parcialmente Nublado 24° 61% 1018 Sul-sudeste/18 km/h 9999
23/02 - 11:55   Parcialmente Nublado 23° 69% 1018 Sul-sudeste/19 km/h OK
23/02 - 10:55   Parcialmente Nublado 23° 69% 1018 Sul-sudeste/19 km/h OK
23/02 - 09:55   Muitas Nuvens 22° 68% 1018 Sul-sudeste/19 km/h OK
23/02 - 08:55   Parcialmente Nublado 21° 77% 1018 Sul-sudeste/16 km/h OK
23/02 - 07:55   Poucas nuvens esparsas 20° 77% 1017 Sul-sudeste/18 km/h OK
23/02 - 06:55   Parcialmente Nublado 19° 88% 1017 Sul-sudeste/12 km/h 8000
23/02 - 05:55   Chovendo fraco 19° 88% 1016 Sul-sudeste/16 km/h 6000
23/02 - 04:55   Névoa úmida 19° 82% 1015 Sul-sudeste/21 km/h 3400


Apolo11.com - Todos os direitos reservados - 2000 - 2018
Política de Privacidade   |     Termo de Uso e Licenciamento   |  -   Entre em Contato

"O melhor mentiroso é aquele que que faz a menor quantidade de mentira percorrer o caminho mais longo" - Samuel Butler